Location: Pella
(41.4080°N, 92.9160°W)
Time: 23:54:47
(UTC-05:00)

ASTRO E2 - Visible Passes

Search period start: 29 September 2016 00:00
Search period end: 09 October 2016 00:00
Orbit: 517 x 524 km, 31.4° (Epoch: 29 September)

Date Brightness Start Highest point End Pass type
(mag) Time Alt. Az. Time Alt. Az. Time Alt. Az.
29 Sep 4.9 20:07:41 10° SW 20:10:10 16° SSW 20:12:23 11° SSE visible
30 Sep 5.1 19:51:33 10° SW 19:53:50 15° SSW 19:56:07 10° SSE visible
01 Oct 5.2 19:35:28 10° SW 19:37:30 13° SSW 19:39:32 10° SSE visible
02 Oct 5.3 19:19:29 10° SW 19:21:09 12° SSW 19:22:49 10° S visible
